Theta_e
305 305 305 305 306 307 306 307 306 304 303 303 302 302 301 302 301 302 304 304 305 305 304 304 303 304 307 310 311 307 314 313 312 312 310 310 312 313 314 312 312 311 312 312 312 312 312
303 304 303 304 303 303 304 305 305 306 306 304 304 303 301 301 302 301 302 303 303 303 303 302 302 305 312 305 305 308 311 313 313 311 310 309 310 311 313 314 313 313 313 313 312 312 314
303 304 303 303 303 303 303 303 302 302 302 303 304 304 303 303 302 301 300 299 299 299 299 300 303 307 310 305 303 307 310 310 315 313 311 311 312 313 314 315 314 314 315 312 313 314 316
304 303 303 303 303 303 303 303 303 302 303 302 300 300 301 303 303 301 299 298 298 302 303 304 306 308 309 303 303 306 306 307 306 308 312 314 314 312 314 314 314 316 313 315 312 315 316
303 304 303 303 302 302 303 302 303 302 302 302 302 302 300 301 303 302 300 297 305 307 305 304 308 309 308 306 311 310 313 312 312 308 311 314 314 314 314 315 314 313 315 314 315 315 317
302 303 303 303 303 302 302 302 302 302 302 302 301 302 302 301 302 303 299 306 311 309 307 309 311 308 303 305 313 315 313 313 311 311 313 314 314 314 312 313 315 316 316 316 316 316 315
303 303 302 303 304 302 302 302 301 302 301 301 301 301 302 301 301 302 303 305 304 305 306 310 309 310 311 314 315 314 314 311 310 312 312 312 313 315 315 314 313 314 316 316 314 314 316
301 302 303 301 302 302 304 304 301 301 301 301 301 300 301 301 300 301 303 305 305 303 307 306 307 308 309 311 312 310 314 312 312 313 312 315 315 314 313 313 315 316 317 316 314 314 315
299 300 301 302 302 300 302 303 302 300 301 301 300 299 299 299 298 301 299 304 301 303 310 309 309 310 310 310 310 309 310 312 312 312 313 314 315 315 315 315 316 315 316 316 315 315 314
300 299 299 300 301 302 301 302 301 300 299 299 299 300 299 300 299 302 300 300 301 303 310 308 311 309 309 310 311 309 310 311 312 312 312 313 313 314 316 316 316 316 315 316 317 317 318
299 299 299 300 301 300 298 299 299 299 299 299 299 299 299 300 301 302 300 300 301 307 302 303 310 309 309 309 306 311 311 311 310 311 311 312 312 313 314 316 315 316 316 317 317 317 317
298 297 297 298 298 299 299 299 299 298 297 298 298 298 299 301 301 300 301 301 307 312 308 305 310 311 310 310 309 310 310 309 310 312 310 310 311 311 312 315 315 317 318 318 317 317 320
297 297 298 297 298 299 299 299 297 296 297 298 297 297 299 301 300 300 300 303 313 310 306 308 308 306 307 310 311 311 311 310 310 312 312 312 311 311 314 314 315 317 316 319 320 321 322
296 295 296 298 298 297 298 298 296 297 297 298 297 298 300 300 301 301 301 305 310 308 310 306 305 307 309 306 312 313 310 309 308 312 309 308 309 311 311 314 316 316 316 319 324 323 321
297 297 297 297 297 298 298 297 298 297 296 297 296 299 300 300 301 302 300 301 306 305 306 305 304 307 308 305 308 311 314 314 312 310 315 315 313 312 312 312 314 315 318 316 319 321 323
294 295 296 296 296 296 296 297 297 296 296 296 299 299 300 300 301 302 302 300 299 304 304 304 304 305 304 303 303 304 311 313 315 315 315 312 317 314 314 311 312 314 316 319 318 323 326
296 296 297 296 296 296 296 297 296 296 296 296 299 301 299 299 301 302 301 299 301 301 300 303 305 304 305 305 304 306 308 311 314 315 315 317 312 312 312 314 313 315 316 318 319 319 322
296 296 297 295 296 295 295 295 295 296 296 296 299 301 300 300 302 302 301 300 300 300 302 301 304 304 303 304 304 304 308 308 310 315 317 317 319 316 314 312 312 313 314 316 319 321 319
296 296 296 296 296 297 296 295 295 296 296 297 299 300 300 301 302 301 301 301 301 300 301 303 305 304 303 303 303 304 304 307 313 316 316 314 319 321 316 314 314 314 315 316 318 318 320
295 295 296 295 296 296 297 296 295 295 295 297 299 301 301 302 300 299 300 302 302 302 300 300 303 302 304 304 305 306 306 306 306 305 316 313 316 319 322 320 318 318 315 315 318 319 319
295 295 295 295 296 296 296 296 296 296 295 297 298 300 301 298 302 301 299 301 301 303 302 300 300 301 302 303 302 302 303 303 303 306 314 315 315 315 317 319 319 319 318 315 317 317 319
294 294 295 295 295 295 295 296 296 296 296 297 298 300 300 304 301 302 302 302 302 302 303 303 302 304 302 302 302 304 305 305 305 312 313 312 313 314 316 313 317 318 317 317 317 317 317
294 295 295 295 296 296 296 296 296 295 296 297 297 298 300 302 301 303 303 303 303 302 304 303 303 304 304 304 303 303 302 303 303 304 311 313 314 314 314 313 316 318 315 318 318 317 317
295 295 296 296 296 297 297 297 297 297 296 297 298 299 300 302 302 302 303 303 302 303 303 304 304 304 304 303 304 305 304 304 304 304 305 310 313 311 316 317 324 319 315 315 317 317 315
297 297 297 297 297 297 297 298 298 298 298 298 298 300 301 302 302 302 302 303 304 303 304 304 304 304 304 305 309 308 305 308 306 305 305 309 312 315 317 318 319 317 317 318 318 318 316
297 297 298 298 299 300 299 298 298 298 298 299 299 299 301 301 301 302 302 303 304 304 304 304 304 304 304 305 307 309 307 308 308 311 308 311 311 313 316 319 319 317 314 316 317 319 316
297 298 298 297 297 297 297 297 299 299 299 299 300 300 300 302 301 301 302 303 303 304 305 304 304 304 303 305 306 307 307 308 308 307 314 313 313 314 316 319 318 317 316 315 320 317 316
297 297 297 296 296 296 297 297 297 298 299 300 300 299 300 300 302 301 302 303 303 304 304 304 305 304 304 306 307 307 305 305 306 307 311 310 314 315 317 318 318 314 315 321 317 315 316
297 297 297 297 296 296 296 297 297 298 298 300 299 300 299 301 302 301 302 302 303 303 304 305 305 304 303 304 301 302 302 300 306 307 306 309 311 312 314 316 314 312 313 312 315 318 316
Wind_Speed
14 11 11 11 13 13 14 14 14 15 13 16 17 17 17 19 20 22 22 24 24 24 25 25 26 22 9 4 10 7 5 5 3 8 7 4 4 5 5 4 4 5 6 5 9 9 8
16 16 17 16 16 15 16 15 14 14 16 15 18 21 19 20 23 23 23 26 28 28 27 26 23 17 3 5 6 7 6 6 8 9 6 7 5 6 3 4 6 5 4 9 9 8 6
16 15 15 14 14 14 15 16 17 17 15 16 15 18 21 21 24 26 27 28 31 32 31 28 19 8 5 18 6 8 8 6 4 4 4 5 3 1 2 2 3 4 5 7 6 3 5
18 16 16 16 16 16 16 17 17 17 16 15 17 17 20 23 25 27 30 34 35 36 26 18 8 5 9 12 15 22 18 21 20 14 10 5 3 3 3 3 5 2 4 4 4 3 2
17 17 17 18 17 18 18 18 17 17 16 17 17 18 19 21 24 28 33 36 28 14 9 7 8 6 10 8 8 6 8 8 11 18 11 2 5 5 2 4 3 4 3 4 8 4 2
21 19 19 18 17 18 18 19 19 17 17 17 17 16 20 20 23 27 34 29 6 6 11 9 4 2 7 4 5 8 3 5 1 7 5 5 3 4 2 4 7 6 4 4 7 3 4
19 19 21 20 19 19 21 19 20 18 19 17 17 18 18 21 22 25 26 10 6 4 5 5 4 6 6 11 7 4 2 2 1 4 7 6 4 11 13 6 6 4 3 3 8 5 4
22 22 21 19 22 21 19 16 19 19 18 18 18 18 19 19 21 22 13 4 5 7 12 14 19 17 31 11 6 4 1 5 4 6 6 2 11 10 9 9 7 4 4 8 10 6 6
24 23 24 24 21 22 21 18 16 20 19 19 20 18 17 20 19 8 11 1 15 15 6 7 5 6 7 13 11 18 4 4 6 6 10 14 4 12 11 6 8 6 10 5 8 7 5
22 24 25 25 22 18 20 18 17 18 21 21 17 16 16 18 9 12 5 9 21 8 4 7 4 6 4 7 6 16 16 8 5 10 6 8 14 3 6 11 10 9 9 9 6 3 4
22 24 24 23 22 23 24 22 20 17 16 16 16 15 13 9 13 7 6 20 23 3 6 0 4 3 2 5 6 2 11 5 11 6 6 7 4 9 8 6 10 9 7 8 5 5 2
27 28 27 27 26 25 23 18 16 17 19 18 17 15 12 9 6 11 12 21 3 1 8 3 2 2 2 4 4 1 3 2 6 3 2 6 3 7 9 9 11 3 3 5 2 2 3
25 25 24 25 26 23 18 17 19 25 20 17 16 13 11 10 3 7 20 7 2 5 5 2 3 4 4 4 4 5 4 6 4 5 13 2 8 3 3 4 7 6 5 2 2 1 5
28 29 29 25 25 22 20 21 23 18 18 17 16 14 13 15 11 10 8 2 8 3 4 4 5 7 4 8 4 7 3 3 5 1 2 10 8 10 6 8 7 9 10 5 6 4 4
25 26 24 26 25 21 22 22 19 17 17 16 14 14 10 17 11 5 3 3 5 4 3 5 3 5 4 5 5 6 5 5 7 6 3 3 5 5 7 11 12 5 8 8 4 1 2
29 29 30 27 24 22 23 21 21 18 18 15 12 7 12 13 9 7 3 8 4 2 5 4 2 4 5 6 7 8 5 3 4 6 3 4 5 4 5 4 6 9 6 3 1 5 5
29 28 26 25 24 25 24 22 21 19 17 15 9 3 7 19 15 3 7 5 2 8 3 4 3 3 2 4 4 4 2 3 4 6 5 6 3 7 9 3 8 3 9 3 5 5 6
30 27 26 27 25 25 23 22 22 21 18 15 6 4 10 25 7 3 11 4 2 5 5 4 1 2 2 3 3 1 4 4 5 3 4 3 3 4 11 16 12 4 7 12 10 4 3
27 26 26 27 25 24 25 25 24 22 21 8 3 3 14 17 9 12 4 11 8 4 3 2 3 5 2 2 2 5 6 6 4 5 5 5 2 5 7 5 3 5 5 5 2 2 8
29 27 28 27 26 27 27 26 25 25 24 20 2 4 4 6 6 12 16 13 12 6 14 6 2 2 2 1 3 2 4 5 8 9 5 3 4 6 5 9 15 12 8 14 8 5 7
32 32 32 32 30 31 31 30 29 29 27 22 6 5 5 5 9 14 12 5 18 11 8 9 5 11 6 4 4 9 10 13 13 10 5 3 4 3 11 14 20 26 22 10 15 12 10
36 36 36 36 36 35 35 33 32 31 31 25 6 5 4 3 3 14 16 15 15 15 10 7 8 7 11 10 10 4 3 3 4 3 2 2 3 3 7 13 18 20 21 14 14 5 6
41 40 40 40 40 40 39 39 37 36 34 17 20 7 5 8 12 11 16 18 17 17 9 18 14 12 12 15 11 12 13 10 7 7 1 2 3 2 9 10 20 10 24 21 8 6 6
44 43 42 41 43 43 43 42 42 43 45 32 17 9 7 9 15 18 16 20 20 18 21 8 13 15 17 5 5 5 10 15 14 13 9 7 3 2 5 7 8 8 5 14 14 12 9
42 41 41 41 42 42 43 44 44 46 47 41 33 10 5 11 10 11 15 13 17 18 19 17 17 13 7 2 3 4 2 2 9 16 16 16 7 3 3 4 8 15 6 5 7 18 14
38 35 34 34 34 31 38 41 44 47 49 47 38 34 5 6 17 13 13 16 10 11 11 14 13 10 5 2 2 3 3 4 3 3 14 13 11 7 3 3 5 6 9 15 0 10 6
32 31 29 25 25 26 25 25 34 43 46 47 24 39 13 5 5 14 13 13 12 8 3 4 8 10 13 4 4 4 5 4 3 2 3 5 6 14 8 5 6 4 9 19 6 5 6
31 30 28 29 28 28 30 30 31 30 39 44 34 33 26 2 7 10 14 9 10 13 5 3 5 2 5 7 4 4 3 5 4 4 3 6 5 4 4 5 7 3 11 6 5 7 7
32 31 30 30 30 31 31 32 32 33 32 39 14 32 38 7 2 21 25 28 26 20 10 4 3 3 4 3 3 2 3 0 5 3 4 5 6 3 6 4 4 3 6 18 11 10 8
Wind_Direction
313 315 317 325 323 317 320 317 323 326 331 330 328 330 333 329 323 310 307 316 318 317 320 322 325 330 349 357 252 266 249 267 260 192 189 171 192 155 189 186 156 198 260 244 248 280 260
297 295 295 298 294 301 306 311 309 314 316 321 322 325 329 330 329 326 314 311 312 311 311 313 318 324 275 285 242 272 286 272 226 199 184 171 210 217 196 203 177 208 249 280 282 270 249
296 302 306 305 307 310 307 309 307 308 308 311 315 316 317 324 326 326 324 318 315 313 309 302 300 292 253 242 242 246 277 260 219 219 189 189 204 197 135 230 226 230 291 311 277 251 236
297 291 297 297 297 302 299 305 308 312 314 312 314 309 314 320 322 324 322 319 319 314 298 280 256 206 252 266 283 279 277 262 250 244 239 230 207 203 186 266 340 309 74 352 283 270 311
289 290 289 286 290 296 296 297 303 307 311 313 316 319 320 320 322 323 324 324 326 331 308 172 148 194 263 294 272 310 252 229 235 211 225 160 138 190 138 135 354 346 229 229 310 297 111
289 295 293 290 289 292 289 293 300 304 307 308 313 315 317 323 323 327 329 328 21 44 74 115 132 298 263 289 325 305 309 241 196 130 118 153 153 159 123 142 212 203 217 246 250 306 346
297 283 287 297 293 284 283 285 290 298 304 306 310 314 316 324 326 334 339 344 10 341 4 237 243 272 285 328 297 197 120 124 246 136 174 184 158 214 197 182 170 157 174 232 265 256 318
289 290 289 280 283 282 283 278 285 296 297 303 307 311 314 322 323 335 354 40 65 314 295 255 244 252 259 278 314 300 181 151 170 194 134 134 223 213 172 192 189 171 244 264 286 288 190
285 289 289 283 268 274 280 274 278 285 289 296 305 312 314 321 321 338 343 56 329 346 270 286 222 241 232 181 232 257 211 186 190 171 193 206 222 178 175 164 186 199 214 228 228 347 277
281 283 281 283 279 268 273 276 279 281 281 292 300 311 312 323 313 332 310 327 331 327 299 276 233 261 202 152 257 217 211 200 217 190 179 231 232 178 198 213 182 218 194 230 253 65 248
286 284 280 279 272 272 277 274 274 277 281 286 294 300 302 318 305 313 324 321 326 166 325 229 168 171 224 192 300 197 195 175 213 185 148 232 164 212 214 220 169 232 155 195 212 206 330
274 270 272 273 275 271 264 259 265 285 288 281 278 285 292 303 277 281 331 325 348 304 247 339 111 135 239 226 284 357 114 350 186 231 206 221 191 170 204 191 185 118 153 207 120 142 231
279 285 277 274 271 270 256 263 276 281 279 273 274 270 270 273 267 310 330 342 200 220 338 21 354 344 332 327 17 338 128 190 164 171 233 170 236 207 205 152 194 169 100 289 311 198 225
277 275 273 273 269 266 262 266 271 261 266 272 270 267 265 259 264 304 342 49 218 263 285 352 346 325 63 17 10 352 77 134 289 315 169 209 265 170 183 200 187 201 175 165 202 202 226
271 276 272 273 265 260 261 262 253 259 264 266 266 274 258 253 243 266 62 204 216 209 344 359 336 48 6 19 9 23 30 359 31 358 297 211 249 259 212 201 184 188 197 189 102 49 67
269 267 270 268 266 264 264 258 258 260 255 252 256 253 241 241 204 159 189 238 233 313 1 358 60 44 2 347 16 29 12 356 3 17 224 292 298 247 268 182 227 187 174 114 359 189 229
268 268 269 265 265 264 263 257 251 248 243 242 236 234 250 217 180 188 222 222 346 304 319 5 349 324 34 6 359 343 283 312 345 339 29 5 208 286 325 208 183 156 220 198 171 165 190
272 264 262 262 258 263 263 256 248 240 233 237 237 222 196 170 193 203 226 178 302 316 4 241 232 308 326 40 346 279 286 297 21 353 6 60 316 291 263 266 276 306 243 213 224 228 227
267 264 262 262 261 257 255 253 243 233 223 196 232 209 183 170 214 218 213 223 232 250 328 252 241 215 184 234 228 226 256 296 112 54 26 348 21 327 329 291 356 241 196 233 169 120 215
267 266 265 263 258 253 248 247 241 230 224 207 250 217 186 212 230 210 216 230 228 198 232 260 288 24 71 252 202 287 334 314 331 327 165 180 210 233 277 299 307 293 219 225 213 222 228
268 267 265 263 256 252 247 241 236 229 223 201 208 212 206 202 228 206 208 214 219 222 207 214 252 246 240 265 278 275 282 272 278 263 172 221 254 223 267 281 280 275 268 232 216 223 219
269 268 265 261 256 252 246 238 232 228 220 209 218 209 203 255 165 195 205 213 226 216 186 209 226 200 220 235 221 277 225 196 263 40 130 183 253 293 280 293 260 257 250 228 225 195 235
269 266 263 260 257 252 246 239 233 225 214 211 218 220 231 232 219 203 213 216 210 214 229 232 210 232 242 226 221 241 254 260 258 283 241 248 271 346 268 312 314 258 228 222 212 201 182
268 266 262 259 257 248 243 237 233 225 218 213 208 203 211 234 201 210 208 212 223 213 220 203 227 237 243 288 258 285 252 240 237 240 224 225 246 222 280 333 252 253 191 218 225 239 218
267 265 263 258 255 248 242 236 231 227 222 216 216 211 192 232 225 225 224 211 212 221 231 227 222 225 240 39 237 254 284 252 237 228 219 210 188 252 247 260 302 305 292 193 185 254 244
270 264 258 257 254 244 240 231 227 224 222 216 215 218 229 211 224 207 209 206 205 206 222 240 249 237 152 213 201 223 227 227 239 233 213 194 209 214 214 201 241 226 320 333 351 276 234
269 264 256 247 243 240 233 229 225 223 219 214 219 203 206 245 196 192 207 207 201 174 201 176 223 221 204 186 222 221 231 262 269 274 162 192 201 222 217 242 269 259 343 313 178 254 335
266 259 248 242 241 238 232 228 226 225 220 212 214 202 202 213 215 214 204 198 187 192 178 159 179 183 166 186 201 185 194 227 201 248 209 194 187 201 202 222 263 359 5 307 280 306 329
262 254 248 244 240 236 233 230 228 223 218 210 211 197 200 223 291 220 215 214 199 186 182 204 203 152 156 156 193 186 214 116 181 223 232 256 194 220 190 223 205 268 262 270 259 263 288